Powrót do katalogu

YAOGAN-30 M

AktywnyMilitariaVLEO
NORAD 43172·PAYLOAD·🇨🇳 China

Wystrzelony Jan 25, 2018 z Xichang Satellite Launch Center

Loading…

Następne Przeloty (najbliższe 24 godziny)

TLE

ŚwieżeSource: Space-Track

Epoka: Sep 14, 2026, 13:50 UTC

1 43172U 18011D   26257.57706211  .00001978  00000-0  14594-3 0  9990
2 43172  34.9978 326.0057 0001490 174.8844 185.1879 15.03068478471544

Śledź YAOGAN-30 M w czasie rzeczywistym z AllMySat

Download on the App Store